Location: Krakow
(50.0830°N, 19.9170°E)
Time: 10:37:34
(UTC+02:00)

A-11 Canister half - Pass Details

Date: 24 March 2026
Orbit: 1523 x 1684 km, 47.3° (Epoch: 16 April)

Event Time Altitude Azimuth Distance (km) Brightness Sun altitude
Rises 14:02:33 0° 288° (WNW) 4,810 11.9 33.6°
Reaches altitude 10° 14:06:31 10° 275° (W) 3,794 11.7 33.1°
Maximum altitude 14:13:22 23° 229° (SW) 2,871 12.8 32.4°
Drops below altitude 10° 14:20:05 10° 182° (S) 3,704 11.8 31.6°
Sets 14:23:56 0° 168° (SSE) 4,669 11.9 31.1°
